Flag for Norway Weather past 2 weeks in Kleppestø, Norway

Now
53 °F

Cool.


Feels Like: 53 °F
Forecast: 51 / 62 °F
Wind: 2 mph from Southeast

Location: Bergen / Florida

Current Time: Sep 4, 2015 at 4:34:38 AM

Latest Report: Sep 4, 2015 at 3:00 AM


Visibility: N/A

Pressure: 29.86 "Hg

Humidity: 71%

Dew point: 44 °F

Location of KleppestøLocation

Historic Weather in Kleppestø — Graph

°F

Kleppestø temperature yesterday

Maximum temperature yesterday: 71 °F (at 3:00 PM)
Minimum temperature yesterday: 58 °F (at 10:00 PM)
Average temperature yesterday: 64 °F

Past Weeks' High & Low Weather Summary

 TemperatureHumidityPressure
High79 °F (Aug 23, 5:00 PM)88% (Aug 29, 6:00 AM)30.24 "Hg (Aug 29, 6:00 AM)
Low51 °F (Sep 1, 6:00 AM)28% (Aug 23, 1:00 PM)29.44 "Hg (Aug 27, 7:00 AM)
Average63 °F62%29.87 "Hg
* Reported Aug 20 3:00 AM — Sep 4 3:00 AM, Kleppestø, Weather by CustomWeather, © 2015

Note: Actual official high and low records may vary slightly from our data, if they occured in-between our weather recording intervals... More about our weather records

Advertising

Kleppestø weather history for previous 24 hours

 ConditionsComfort  
Time TempWeatherWind HumidityBarometerVisibility
3:00 AM
Fri, Sep 4
53 °FCool.2 mph71%29.86 "HgN/A
2:00 AM55 °FCool.2 mph67%29.86 "HgN/A
1:00 AM56 °FCool.2 mph64%29.86 "HgN/A
12:00 AM57 °FCool.3 mph67%29.85 "HgN/A
10:00 PM
Thu, Sep 3
58 °FCool.1 mph66%29.84 "HgN/A
9:00 PM60 °FCool.2 mph62%29.83 "HgN/A
8:00 PM63 °FScattered clouds.1 mph54%29.81 "Hg31 mi
7:00 PM64 °FMild.7 mph50%29.80 "HgN/A
6:00 PM67 °FMild.2 mph47%29.78 "HgN/A
5:00 PM67 °FPartly sunny.2 mph45%29.78 "Hg31 mi
4:00 PM67 °FMild.3 mph41%29.77 "HgN/A
3:00 PM71 °FMild.1 mph34%29.76 "HgN/A
2:00 PM70 °FPassing clouds.5 mph33%29.75 "Hg31 mi
1:00 PM69 °FMild.6 mph38%29.75 "HgN/A
12:00 PM69 °FMild.3 mph36%29.74 "HgN/A
11:00 AM67 °FPassing clouds.5 mph40%29.72 "Hg31 mi
10:00 AM65 °FMild.8 mph43%29.71 "HgN/A
9:00 AM64 °FMild.8 mph41%29.69 "HgN/A
8:00 AM62 °FScattered clouds.8 mph44%29.68 "Hg31 mi
7:00 AM61 °FRefreshingly cool.8 mph45%29.67 "HgN/A
5:00 AM61 °FRefreshingly cool.5 mph47%29.66 "HgN/A
4:00 AM61 °FRefreshingly cool.2 mph47%29.67 "HgN/A
Weather by CustomWeather, © 2015

See weather overviewHow to use our weather pages